(244580) = 2002 XU8

Discovered at Socorro on 2002-12-02 by LINEAR.

Orbit

Orbit type: Main Belt

Note: WebGL enabled browser required.

epoch2024-03-31.0
epoch JD2460400.5
perihelion date2025-01-15.75602
perihelion JD2460691.25602
argument of perihelion (°)28.52287
ascending node (°)72.43613
inclination (°)17.44718
eccentricity0.0601630
perihelion distance (AU)2.9015791
Tisserand w.r.t. Jupiter3.2
ΔV w.r.t. Earth (km/sec)11.9
semimajor axis (AU)3.0873216
mean anomaly (°)307.17254
mean daily motion (°/day)0.18169000
aphelion distance (AU)3.273
period (years)5.42
P-vector [x]-0.16916214
P-vector [y]0.83771829
P-vector [z]0.51924198
Q-vector [x]-0.94322561
Q-vector [y]-0.29039950
Q-vector [z]0.16122523
absolute magnitude15.63
phase slope0.15
uncertainty0
referenceMPEC 2024-C37
observations used392
oppositions14
arc length (days)10804
first opposition used1994
last opposition used2023
residual rms (arc-secs)0.75
perturbers coarse indicatorM-v
perturbers precise indicator003Ek
first observation date used1994-05-09.0
last observation date used2023-12-07.0
computer nameMPCLINUX
JD of orbit computation2456670.910017
perihelion JD uncertainty (days)5.5736E-04
argument of perihelion uncertainty (°)1.1185E-04
ascending node uncertainty (°)2.4633E-05
inclination uncertainty (°)7.2723E-06
eccentricity uncertainty 7.8120E-08
perihelion distance uncertainty (AU)2.4997E-07
Minimum Orbit Intersection Distances (in AU)
for orbit epoch: 2460200.5, reference: E2024-C37
Mercury2.58381
Venus2.18448
Earth1.92304
Mars1.32674
Jupiter2.02046
Saturn6.15176
Uranus15.5642
Neptune26.8685

Observations

404 total observations over interval: 1994 05 09.28805 – 2023 12 07.243216
These data are available for download (format description).

Date (UT) J2000 RA J2000 Dec Magn Location Ref
1994 05 09.28805 15 08 58.04 -05 49 50.6   691 – Steward Observatory, Kitt Peak-Spacewatch MPS 175707
1994 05 09.35993 15 08 54.18 -05 49 52.9 20.1 V 691 – Steward Observatory, Kitt Peak-Spacewatch MPS 175707
1994 05 09.43937 15 08 49.84 -05 49 55.6   691 – Steward Observatory, Kitt Peak-Spacewatch MPS 175707
2002 11 24.32850 04 16 08.49 +17 08 22.2 19.2   644 – Palomar Mountain/NEAT MPS 123542
2002 11 24.34953 04 16 07.21 +17 08 26.1 19.1   644 – Palomar Mountain/NEAT MPS 123542
2002 11 24.37262 04 16 05.82 +17 08 29.4 19.3   644 – Palomar Mountain/NEAT MPS 123542
2002 12 02.23525 04 08 20.90 +17 30 44.9 19.5   704 – Lincoln Laboratory ETS, New Mexico MPS 68366
2002 12 02.24996 04 08 20.04 +17 30 48.2 19.8   704 – Lincoln Laboratory ETS, New Mexico MPS 68366
2002 12 02.26452 04 08 19.17 +17 30 51.3 19.8   704 – Lincoln Laboratory ETS, New Mexico MPS 68366
2002 12 02.27910 04 08 18.31 +17 30 54.9 19.6   704 – Lincoln Laboratory ETS, New Mexico MPS 68366
2002 12 05.22165 04 05 26.71 +17 39 29.7 19.6   704 – Lincoln Laboratory ETS, New Mexico MPS 68366
2002 12 05.23700 04 05 25.69 +17 39 32.8 20.4   704 – Lincoln Laboratory ETS, New Mexico MPS 68366
2002 12 05.25229 04 05 24.68 +17 39 36.6 20.2   704 – Lincoln Laboratory ETS, New Mexico MPS 68366
2002 12 05.26753 04 05 23.95 +17 39 38.7 20.7   704 – Lincoln Laboratory ETS, New Mexico MPS 68366
2002 12 05.28283 04 05 23.02 +17 39 41.4 20.5   704 – Lincoln Laboratory ETS, New Mexico MPS 68366
2003 01 04.17638 03 43 41.73 +19 20 02.7 20.4   704 – Lincoln Laboratory ETS, New Mexico MPS 123542
2003 01 04.19173 03 43 41.30 +19 20 06.6 19.7   704 – Lincoln Laboratory ETS, New Mexico MPS 123542
2003 01 04.20660 03 43 40.94 +19 20 11.0 19.3   704 – Lincoln Laboratory ETS, New Mexico MPS 123542
2003 01 04.22085 03 43 40.57 +19 20 13.6 19.8   704 – Lincoln Laboratory ETS, New Mexico MPS 123542
2004 04 13.197510 10 42 25.863 +32 44 15.93 21.21 V 645 – Apache Point-Sloan Digital Sky Survey MPS 149469
2004 04 13.200982 10 42 25.789 +32 44 14.68 21.88   645 – Apache Point-Sloan Digital Sky Survey MPS 149469
2004 05 12.203080 10 44 59.600 +29 00 55.21 21.35 V 645 – Apache Point-Sloan Digital Sky Survey MPS 149469
2004 05 12.206552 10 44 59.679 +29 00 53.27 22.14   645 – Apache Point-Sloan Digital Sky Survey MPS 149469
2007 10 19.31090 02 18 46.98 -05 20 16.1 19.8 V 703 – Catalina Sky Survey MPS 222452
2007 10 19.32012 02 18 46.44 -05 20 16.3 20.0 V 703 – Catalina Sky Survey MPS 222452
2007 10 19.32935 02 18 45.97 -05 20 16.2 18.4 V 703 – Catalina Sky Survey MPS 222452
2007 10 19.33860 02 18 45.43 -05 20 17.8 19.6 V 703 – Catalina Sky Survey MPS 222452
2007 11 02.23859 02 06 35.89 -05 27 52.3 20.7 V 703 – Catalina Sky Survey MPS 224730
2007 11 02.24510 02 06 35.56 -05 27 50.7 20.6 V 703 – Catalina Sky Survey MPS 224730
2007 11 02.25161 02 06 35.24 -05 27 51.5 19.9 V 703 – Catalina Sky Survey MPS 224730
2007 11 02.25810 02 06 34.77 -05 27 51.2 19.5 V 703 – Catalina Sky Survey MPS 224730
2010 01 22.634822 14 21 25.98 +03 02 16.2   C51 – WISE MPS 334810
2010 01 22.767126 14 21 31.79 +03 02 10.5   C51 – WISE MPS 334810
2010 01 22.899557 14 21 37.57 +03 02 04.7   C51 – WISE MPS 334810
2010 01 22.965646 14 21 40.697 +03 02 01.07   C51 – WISE MPS 926833
2010 01 23.031861 14 21 43.34 +03 01 59.0   C51 – WISE MPS 334810
2010 01 23.097950 14 21 46.25 +03 01 55.9   C51 – WISE MPS 334810
2010 01 23.098078 14 21 46.22 +03 01 55.8   C51 – WISE MPS 334810
2010 01 23.164166 14 21 49.09 +03 01 53.5   C51 – WISE MPS 334810
2010 01 23.230382 14 21 51.94 +03 01 49.7   C51 – WISE MPS 334810
2010 01 23.362686 14 21 57.70 +03 01 44.7   C51 – WISE MPS 334810
2010 01 23.494991 14 22 03.42 +03 01 39.1   C51 – WISE MPS 334810
2010 01 23.627294 14 22 09.14 +03 01 33.6   C51 – WISE MPS 334810
2010 01 23.627421 14 22 09.11 +03 01 33.3   C51 – WISE MPS 334810
2010 04 06.580510 14 20 56.259 +05 42 17.18 20.42 i F51 – Pan-STARRS 1, Haleakala MPS 337293
2010 04 06.589711 14 20 55.863 +05 42 18.30 20.40 i F51 – Pan-STARRS 1, Haleakala MPS 337293
2010 04 08.63497 14 19 22.35 +05 47 30.0 20.4 R D29 – Purple Mountain Observatory, XuYi Station MPS 320606
2010 04 08.65153 14 19 21.59 +05 47 31.6 20.1 R D29 – Purple Mountain Observatory, XuYi Station MPS 320606
2010 04 08.66865 14 19 20.83 +05 47 36.7 20.6 R D29 – Purple Mountain Observatory, XuYi Station MPS 320606
2010 04 08.68675 14 19 19.93 +05 47 37.5 20.3 R D29 – Purple Mountain Observatory, XuYi Station MPS 320606
2010 04 09.27318 14 18 52.52 +05 49 03.0 20.8 V 703 – Catalina Sky Survey MPS 322175
2010 04 09.27893 14 18 52.16 +05 49 02.5 19.3 V 703 – Catalina Sky Survey MPS 322175
2010 04 09.28473 14 18 51.87 +05 49 03.7 19.8 V 703 – Catalina Sky Survey MPS 322175
2010 04 09.29051 14 18 51.51 +05 49 04.5 19.4 V 703 – Catalina Sky Survey MPS 322175
2010 04 12.506957 14 16 17.085 +05 56 12.27 20.30 r F51 – Pan-STARRS 1, Haleakala MPS 337293
2010 04 12.518544 14 16 16.504 +05 56 13.66 20.20 r F51 – Pan-STARRS 1, Haleakala MPS 337293
2010 04 12.559556 14 16 14.448 +05 56 18.53 20.36 g F51 – Pan-STARRS 1, Haleakala MPS 337293
2010 04 12.568748 14 16 13.987 +05 56 19.58 21.04 g F51 – Pan-STARRS 1, Haleakala MPS 337293
2010 05 13.31367 13 51 09.82 +05 49 40.3 20.0 V G96 – Mt. Lemmon Survey MPS 326317
2010 05 13.32080 13 51 09.50 +05 49 39.3 20.1 V G96 – Mt. Lemmon Survey MPS 326317
2010 05 13.32801 13 51 09.21 +05 49 37.8 20.1 V G96 – Mt. Lemmon Survey MPS 326317
2010 05 13.33523 13 51 08.89 +05 49 36.8 20.3 V G96 – Mt. Lemmon Survey MPS 326317
2010 05 14.89722 13 50 05.00 +05 45 13.1 20.1   A77 – Observatoire Chante-Perdrix, Dauban MPS 327320
2010 05 14.91729 13 50 04.16 +05 45 08.7 20.2   A77 – Observatoire Chante-Perdrix, Dauban MPS 327320
2010 05 14.93737 13 50 03.33 +05 45 05.8 20.4   A77 – Observatoire Chante-Perdrix, Dauban MPS 327320
2010 07 10.372729 13 42 38.41 -00 12 32.1   C51 – WISE MPS 338961
2010 07 10.505032 13 42 41.63 -00 13 39.3   C51 – WISE MPS 338961
2010 07 10.637337 13 42 44.85 -00 14 48.0   C51 – WISE MPS 338961
2010 07 10.769640 13 42 48.04 -00 15 55.2   C51 – WISE MPS 338961
2010 07 10.835728 13 42 49.67 -00 16 29.3   C51 – WISE MPS 338961
2010 07 10.90194 13 42 51.31 -00 17 03.0   C51 – WISE MPS 338961
2010 07 10.968032 13 42 52.93 -00 17 37.6   C51 – WISE MPS 338961
2010 07 11.034248 13 42 54.54 -00 18 11.5   C51 – WISE MPS 338961
2010 07 11.100336 13 42 56.23 -00 18 44.9   C51 – WISE MPS 338961
2010 07 11.232640 13 42 59.47 -00 19 53.3   C51 – WISE MPS 338961
2010 07 11.364943 13 43 02.82 -00 21 01.3   C51 – WISE MPS 338961
2010 07 11.497248 13 43 06.13 -00 22 09.9   C51 – WISE MPS 338961
2010 07 11.629551 13 43 09.46 -00 23 18.3   C51 – WISE MPS 338961
2013 11 28.40081 05 27 57.46 +25 22 54.4 19.5 V G96 – Mt. Lemmon Survey MPS 489704
2013 11 28.40815 05 27 57.05 +25 22 56.6 19.5 V G96 – Mt. Lemmon Survey MPS 489704
2013 11 28.41544 05 27 56.62 +25 22 58.8 19.5 V G96 – Mt. Lemmon Survey MPS 489704
2013 11 28.42272 05 27 56.21 +25 23 01.1 19.4 V G96 – Mt. Lemmon Survey MPS 489704
2013 12 10.18870 05 16 19.72 +26 19 22.3 20.0 V G96 – Mt. Lemmon Survey MPS 491886
2013 12 10.19341 05 16 19.41 +26 19 23.8 19.4 V G96 – Mt. Lemmon Survey MPS 491886
2013 12 10.19812 05 16 19.10 +26 19 25.3 19.9 V G96 – Mt. Lemmon Survey MPS 491886
2013 12 10.20283 05 16 18.83 +26 19 27.4 20.2 V G96 – Mt. Lemmon Survey MPS 491886
2013 12 11.24253 05 15 14.36 +26 24 06.2 19.0 V G96 – Mt. Lemmon Survey MPS 491886
2013 12 11.24751 05 15 14.01 +26 24 07.6 19.2 V G96 – Mt. Lemmon Survey MPS 491886
2013 12 11.25248 05 15 13.70 +26 24 09.0 19.1 V G96 – Mt. Lemmon Survey MPS 491886
2013 12 11.25744 05 15 13.38 +26 24 10.2 19.0 V G96 – Mt. Lemmon Survey MPS 491886
2013 12 23.14454 05 03 07.46 +27 12 42.9 19.9 V 703 – Catalina Sky Survey MPS 493216
2013 12 23.14957 05 03 07.20 +27 12 43.5 18.6 V 703 – Catalina Sky Survey MPS 493216
2013 12 23.15460 05 03 06.92 +27 12 45.5 19.4 V 703 – Catalina Sky Survey MPS 493216
2013 12 23.15963 05 03 06.50 +27 12 46.2 18.9 V 703 – Catalina Sky Survey MPS 493216
2013 12 25.29327 05 01 03.546 +27 20 32.51 20.3 w F51 – Pan-STARRS 1, Haleakala MPS 493216
2013 12 25.30644 05 01 02.783 +27 20 35.48 20.2 w F51 – Pan-STARRS 1, Haleakala MPS 493216
